Location: Gwatt
(46.7204°N, 7.6223°E)
Time: 20:04:26
(UTC+00:00)

Transit 2A - Pass Details

Date: 28 January 2021
Orbit: 600 x 958 km, 66.7° (Epoch: 26 February)

Event Time Altitude Azimuth Distance (km) Brightness Sun altitude
Rises 01:51:15 0° 192° (SSW) 3,503 - -51.1°
Reaches altitude 10° 01:53:56 10° 186° (S) 2,521 - -50.7°
Maximum altitude 01:59:25 44° 116° (ESE) 1,121 - -49.9°
Drops below altitude 10° 02:04:27 10° 45° (NE) 2,309 - -49.2°
Exits shadow 02:05:54 - 41° (NE) 2,839 9.5 -49.0°
Sets 02:06:49 0° 39° (NE) 3,181 9.8 -48.9°
